TimeEDT,TemperatureF,Dew PointF,Humidity,Sea Level PressureIn,VisibilityMPH,Wind Direction,Wind SpeedMPH,Gust SpeedMPH,PrecipitationIn,Events,Conditions,WindDirDegrees,DateUTC
12:53 AM,64.0,52.0,65,29.90,10.0,South,12.7,21.9,N/A,,Clear,190,2013-04-16 04:53:00
1:53 AM,64.0,52.0,65,29.88,10.0,South,13.8,20.7,N/A,,Partly Cloudy,190,2013-04-16 05:53:00
2:53 AM,64.0,52.0,65,29.88,10.0,SSW,9.2,-,N/A,,Mostly Cloudy,200,2013-04-16 06:53:00
3:53 AM,64.0,53.1,67,29.87,10.0,South,9.2,21.9,0.00,,Partly Cloudy,190,2013-04-16 07:53:00
4:53 AM,63.0,53.1,70,29.91,10.0,WNW,8.1,-,N/A,,Clear,290,2013-04-16 08:53:00
5:53 AM,61.0,53.1,75,29.94,10.0,WNW,3.5,-,N/A,,Overcast,300,2013-04-16 09:53:00
6:53 AM,54.0,48.9,83,29.99,9.0,North,6.9,-,N/A,,Overcast,350,2013-04-16 10:53:00
8:53 AM,54.0,48.9,83,30.06,4.0,West,5.8,-,0.02,Rain,Light Rain,280,2013-04-16 12:53:00
8:57 AM,53.6,50.0,88,30.08,2.5,West,8.1,-,0.01,Rain,Rain,270,2013-04-16 12:57:00
9:06 AM,53.6,48.2,82,30.10,4.0,West,9.2,-,0.01,Rain,Light Rain,270,2013-04-16 13:06:00
9:23 AM,53.6,48.2,82,30.07,2.5,NW,8.1,-,0.05,Rain,Light Rain,320,2013-04-16 13:23:00
9:32 AM,51.8,48.2,88,30.08,5.0,WNW,6.9,-,0.06,Rain,Light Rain,300,2013-04-16 13:32:00
9:40 AM,51.8,48.2,88,30.07,7.0,WNW,3.5,-,0.06,Rain,Light Rain,290,2013-04-16 13:40:00
9:53 AM,52.0,48.9,89,30.04,10.0,Calm,Calm,-,0.06,,Overcast,0,2013-04-16 13:53:00
10:09 AM,53.6,50.0,88,30.02,9.0,ESE,5.8,-,N/A,,Overcast,110,2013-04-16 14:09:00
10:37 AM,53.6,50.0,88,30.09,9.0,NW,15.0,-,N/A,,Mostly Cloudy,320,2013-04-16 14:37:00
10:53 AM,53.1,48.9,86,30.06,10.0,North,9.2,-,N/A,,Overcast,350,2013-04-16 14:53:00
11:53 AM,53.1,48.9,86,30.11,10.0,NNW,6.9,-,N/A,,Overcast,340,2013-04-16 15:53:00
12:53 PM,54.0,48.9,83,30.11,10.0,North,6.9,-,N/A,,Overcast,350,2013-04-16 16:53:00
1:43 PM,57.2,51.8,82,30.11,10.0,Calm,Calm,-,N/A,,Overcast,0,2013-04-16 17:43:00
1:53 PM,57.0,50.0,77,30.09,10.0,Calm,Calm,-,N/A,,Overcast,0,2013-04-16 17:53:00
2:14 PM,57.2,51.8,82,30.13,10.0,NW,10.4,-,N/A,,Overcast,320,2013-04-16 18:14:00
2:38 PM,55.4,51.8,88,30.15,8.0,NW,10.4,-,N/A,,Overcast,320,2013-04-16 18:38:00
2:53 PM,55.0,50.0,83,30.12,4.0,NNW,13.8,-,0.01,Rain-Thunderstorm,Light Rain,340,2013-04-16 18:53:00
2:56 PM,55.4,50.0,82,30.15,1.8,NNW,11.5,-,0.01,Rain-Thunderstorm,Thunderstorms and Rain,330,2013-04-16 18:56:00
3:03 PM,53.6,50.0,88,30.12,1.0,North,11.5,-,0.05,Rain-Thunderstorm,Thunderstorms and Rain,10,2013-04-16 19:03:00
3:16 PM,53.6,50.0,88,30.10,3.0,North,10.4,-,0.09,Rain-Thunderstorm,Light Thunderstorms and Rain,10,2013-04-16 19:16:00
3:29 PM,53.6,50.0,88,30.10,2.0,NE,4.6,-,0.14,Rain-Thunderstorm,Thunderstorms and Rain,40,2013-04-16 19:29:00
3:36 PM,53.6,50.0,88,30.10,1.5,NNE,9.2,-,0.18,Rain-Thunderstorm,Thunderstorms and Rain,30,2013-04-16 19:36:00
3:53 PM,54.0,51.1,90,30.08,1.5,NNE,10.4,-,0.28,Rain-Thunderstorm,Heavy Thunderstorms and Rain,20,2013-04-16 19:53:00
4:13 PM,53.6,51.8,94,30.12,0.8,NNE,5.8,-,0.22,Rain-Thunderstorm,Heavy Thunderstorms and Rain,30,2013-04-16 20:13:00
4:21 PM,53.6,51.8,94,30.13,2.0,North,9.2,-,0.25,Rain-Thunderstorm,Thunderstorms and Rain,360,2013-04-16 20:21:00
4:43 PM,53.6,51.8,94,30.14,2.5,North,9.2,-,0.32,Rain,Rain,10,2013-04-16 20:43:00
4:53 PM,54.0,51.1,90,30.14,3.0,North,11.5,-,0.35,Rain,Rain,360,2013-04-16 20:53:00
5:16 PM,53.6,50.0,88,30.14,2.0,North,6.9,-,0.10,Rain,Heavy Rain,360,2013-04-16 21:16:00
5:49 PM,53.6,50.0,88,30.13,2.5,NNE,6.9,-,0.24,Rain,Rain,20,2013-04-16 21:49:00
5:53 PM,53.1,50.0,89,30.12,3.0,North,9.2,-,0.25,Rain,Light Rain,10,2013-04-16 21:53:00
6:16 PM,51.8,48.2,88,30.14,10.0,North,13.8,-,0.00,,Overcast,10,2013-04-16 22:16:00
6:49 PM,51.8,48.2,88,30.16,10.0,NE,6.9,-,0.00,,Overcast,50,2013-04-16 22:49:00
6:53 PM,52.0,48.0,86,30.16,10.0,NE,8.1,-,0.00,,Overcast,40,2013-04-16 22:53:00
7:38 PM,51.8,48.2,88,30.16,10.0,NE,8.1,-,N/A,,Overcast,40,2013-04-16 23:38:00
7:53 PM,52.0,46.9,83,30.16,10.0,NNE,8.1,-,N/A,,Overcast,30,2013-04-16 23:53:00
8:53 PM,52.0,45.0,77,30.14,10.0,NNE,9.2,-,N/A,,Overcast,30,2013-04-17 00:53:00
9:53 PM,52.0,46.9,83,30.20,10.0,East,3.5,-,N/A,,Overcast,80,2013-04-17 01:53:00
10:22 PM,51.8,46.4,82,30.20,10.0,Calm,Calm,-,N/A,,Mostly Cloudy,0,2013-04-17 02:22:00
10:53 PM,52.0,46.9,83,30.19,10.0,ENE,5.8,-,N/A,,Overcast,70,2013-04-17 02:53:00
11:28 PM,51.8,46.4,82,30.19,10.0,ENE,3.5,-,N/A,Thunderstorm,Mostly Cloudy,60,2013-04-17 03:28:00
11:53 PM,52.0,48.0,86,30.17,7.0,East,6.9,-,0.01,Rain-Thunderstorm,Light Thunderstorms and Rain,90,2013-04-17 03:53:00